星链-1450 (STARLINK-1450 )

导读 | 豆包AI

STARLINK-1450是美国SpaceX星链星座中的一颗卫星,于2020年6月4日发射升空。它属于星链项目第二代组网卫星,主要为全球提供低延迟、高速率的宽带互联网服务,目前已在近地轨道运行超5年,支撑星链网络覆盖与服务能力,推动全球卫星互联网建设。

Basic Information
目录编号:
45667
目录名称:
STARLINK-1450
国际标识:
2020-035L
轨道中心:
EARTH
卫星名称:
星链-1450
卫星全名:
星链-1450 (STARLINK-1450 )
卫星状态:
已陨落 最后检测时间 2024-08-17
发射日期:
2020-06-04 UTC
国别 :
美国 (US)
星等 :
--
Orbit Information
数据来源 国际轨道数据
星历时间: 2024-08-17T14:27:03+0800
轨道信息已过期574天
半长轴: 6611.399km
偏心率: 0.0012722
轨道倾角: 53.038°
近地点辐角 289.316°
升交点赤经 37.828°
平近点角 209.565°
近地点: 224.852km
远地点: 241.676km
周期: 89.166分钟
每日圈数: 16.149638
Detailed Information
固有亮度:
5
最大亮度:
2.5
卫星平台:
Starlink V1.0
覆盖范围:
全球
运营商:
太空探索技术公司
运营商所在国:
美国
制造商(研发单位):
太空探索技术公司
制造商所在国:
美国
使用方式:
暂无
Satellite Introduction
星链(Starlink)计划是由太空探索技术公司(SpaceX)提出的一个巨型低轨卫星互联网星座项目,计划在2019年至2024年间在太空搭建由约1.2万颗卫星组成的“星链”网络,其中1584颗将部署在地球上空550千米处的近地轨道,并从2020年开始工作。该卫星仍在工作。